COSMOS 44

Satellite information

Favourite Embed

Satellite Type and Status

PAYLOADIN ORBIT

Key statistics

Satellite COSMOS 44 at a glance.

Uptime

22329

Days in orbit

Revolutions

≈ 14.7

Per day

Orbit

LEO

Low Earth Orbit

Inclination

65.1

Latest

Satellite identification and parameters

Extended collection of information and parameters for COSMOS 44.

Object identification

Identified? True

Debris? False

Object name: COSMOS 44

International designator: 1964-053A

Object number (NORAD): 876

Object ID (CCSDS): 876

Country: COMMONWEALTH OF INDEPENDENT STATES (CIS)

Current information (Y/N): Y

RCS size: LARGE

Orbital parameters

Period: 98.261 minutes

Inclination: 65.0602 deg

SMA: 7053.635 km

Apoapsis: 772.075 km

Periapsis: 578.925 km

RAAN: 327.6624 deg

Eccentricy: 0.0136915

Argument of periapsis: 350.9461 deg

Mean anomaly: 8.9173 deg

Mean motion: 14.65491471 rev/day

Mean motion (dot): 0.0000048 rev/day2

B* drag term: 0.000099672647 1/REarth

Two-line elements (TLE)

Creation date: Oct. 16, 2025, 2:37 a.m.

Reference frame: TEME

Reference center: EARTH

Epoch: Oct. 15, 2025, 8:16 p.m. UTC

TLE line 0: 0 COSMOS 44

TLE line 1: 1 00876U 64053A 25288.84466405 .00000480 00000-0 99673-4 0 9991

TLE line 2: 2 00876 65.0602 327.6624 0136915 350.9461 8.9173 14.65491471252868

Live tracking on map

Real-time ground track for satellite COSMOS 44.

In-orbit conjunctions

A list of the most updated potential collisions computed for object COSMOS 44.

Target Orbit TCA Probability of collision Miss distance Type
FENGYUN 1C DEB SSO 2025-07-09 06:18:08 0.0001349713 240.0 (m) DEBRIS
DELTA 1 DEB SSO 2024-11-04 12:29:52 0.0001794924 206.0 (m) DEBRIS
COSMOS 2251 DEB LEO 2024-10-16 09:18:00 0.0001973212 634.0 (m) DEBRIS
CZ-6A DEB SSO 2024-09-17 12:36:29 0.0003285983 63.0 (m) DEBRIS
CZ-6A DEB SSO 2024-06-16 14:30:59 0.0001472267 420.0 (m) DEBRIS

Associated space launch

The Meteor-1 series was the first series of Soviet meteorological satellites.

COSMOS 44 was lifted into orbit during the mission ‘Vostok 8A92M | Meteor-1 1’, on board a Vostok 8A92M space rocket.

The launch took place on Aug. 28, 1964, 4 p.m. from 31/6.

For more information about the launch, click the button.

Launch to space Vostok 8A92M | Meteor-1 1
Vostok 8A92M | Meteor-1 1

Agency: N/A

Status: Launch Successful

Launch date: Aug. 28, 1964, 4 p.m. UTC

Rocket: Vostok 8A92M

Launch pad: 31/6

Location: Baikonur Cosmodrome, Republic of Kazakhstan

...

Latest news about this satellite

There are no fresh news available about this satellite. Check back as we update our databases every day.


Newsletter sign-up

Weekly statistics, charts and insights to help you stay on top of the space industry.